AirNav   Free Bose Alto or Rondo audio sunglasses
 
 1552 users online  

71FD Blackcreek International Heliport
Middleburg, Florida, USA

GOING TO MIDDLEBURG?


FAA INFORMATION EFFECTIVE 05 NOVEMBER 2020

Location

FAA Identifier: 71FD
Lat/Long: 30-04-26.0000N 081-48-57.0000W
30-04.433333N 081-48.950000W
30.0738889,-81.8158333
(estimated)
Elevation: 5 ft. / 2 m (estimated)
Variation: 03W (1990)
From city: 2 miles E of MIDDLEBURG, FL
Time zone: UTC -5 (UTC -4 during Daylight Saving Time)
Zip code: 32043

Heliport Operations

Heliport use: Private use. Permission required prior to landing
Activation date: 11/1982
Control tower: no
ARTCC: JACKSONVILLE CENTER
FSS: GAINESVILLE FLIGHT SERVICE STATION
Attendance: UNATNDD
Wind indicator: yes
Segmented circle: no
Lights: LIGHT ON THE DOCK NEXT TO HELIPAD.

Heliport Communications

WX AWOS-3 at VQQ (9 nm N): 125.275 (904-778-6934)
WX AWOS-3 at NIP (12 nm NE): 119.275
WX AWOS-3 at HEG (12 nm N): 119.275 (904-695-0334)
WX AWOS-3 at 42J (18 nm SW): 124.275 (352-473-8273)

Nearby radio navigation aids

VOR radial/distance  VOR name  Freq  Var
VQQr158/(9.2)CECIL VOR117.9003W
CRGr228/22.5CRAIG VORTAC114.5003W
SGJr292/26.2ST AUGUSTINE VOR/DME109.4006W
GNVr050/33.0GATORS VORTAC116.2004W

 
NDB name  Hdg/Dist  Freq  Var  ID
REYNOLDS315/10.433807WRYD .-. -.-- -..

Heliport Services

Runway Information

Helipad H1

Dimensions: 15 x 15 ft. / 5 x 5 m
Surface: concrete
Traffic pattern: leftleft

Heliport Ownership and Management from official FAA records

Ownership: Privately-owned
Owner: ROBERT A. RAINES
3274 BYRON ROAD
GREEN CORE SPRINGS, FL 32043
Phone (904) 403-1985
Manager: ROBERT A. RAINES
3274 BYRON ROAD
GREEN CORE SPRINGS, FL 32043
Phone (904) 403-1985

Additional Remarks

FOR CD CTC JACKSONVILLE APCH AT 904-741-0284.

Instrument Procedures

There are no published instrument procedures at 71FD.

Some nearby airports with instrument procedures:

KVQQ - Cecil Airport (9 nm N)
KNIP - Jacksonville Naval Air Station (Towers Field) (12 nm NE)
KHEG - Herlong Recreational Airport (12 nm N)
42J - Keystone Heights Airport (18 nm SW)
KCRG - Jacksonville Executive Airport at Craig (22 nm NE)
 
Loc | Ops | Rwys | IFR | FBO | Links
Com | Nav | Svcs | Stats | Notes
Area around 71FD (Blackcreek International Heliport)
 
Road maps at: MapQuest Bing Google
 
Aerial photo
No photo
 
Sectional chart

 
Airport distance calculator
Flying to Blackcreek International Heliport? Find the distance to fly.

From to 71FD

Sunrise and sunset
Times for 23-Nov-2020
 Local
(UTC-5)
 Zulu
(UTC)
Morning civil twilight06:3511:35
Sunrise07:0112:01
Sunset17:2722:27
Evening civil twilight17:5322:53

Current date and time
Zulu (UTC)  23-Nov-2020 18:00:05
Local (UTC-5)  23-Nov-2020 13:00:05
 
METAR
KVQQ 
9nm N 
231750Z 3310KT 10SM CLR 25/13 A3009
KNIP 
12nm NE 
231753Z 36008KT 10SM FEW040 23/12 A3009 RMK AO2 SLP185 T02330122 10233 20167 58014
KHEG 
12nm N 
231755Z AUTO 31009KT 10SM CLR 23/13 A3011 RMK AO2
K42J 
18nm SW 
231755Z AUTO 32011KT 10SM CLR 23/10 A3008 RMK A01 TSNO
TAF
KVQQ 
9nm N 
230522Z 2306/2406 00000KT P6SM VCSH SCT029 BKN060 FM230800 00000KT P6SM SCT030 BKN040 FM231500 35007KT P6SM SKC FM240000 VRB03KT P6SM SKC
KNIP 
12nm NE 
2309/2407 34005KT 9999 FEW005 SCT090 QNH3005INS TEMPO 2310/2312 9000 BR BKN005 BKN090 FM231300 35008KT 9999 SCT090 QNH3008INS FM231600 34012KT 9999 FEW050 QNH3010INS FM240200 02007KT 9999 SKC QNH3017INS T17/2312Z T24/2320Z AMD 0952 COR 1014 FN20019
NOTAMs
Click for the latest NOTAMs
NOTAMs are issued by the DoD/FAA and will open in a separate window not controlled by AirNav.

 

 
 

Would you like to see your business listed on this page?

 If your business provides an interesting product or service to pilots, flight crews, aircraft, or users of the Blackcreek International Heliport, you should consider listing it here.  To start the listing process, click on the button below
 
Add a business
 

Other Pages about Blackcreek International Heliport

Update a link
 
Copyright © AirNav, LLC. All rights reserved. Privacy Policy  Contact